When you browse on this site, cookies collect data to enhance your experience and personalize the content and advertising you see.
Visit our Privacy Policy to learn more. By continuing to use the site, you agree to this use of cookies and data.
  • în România
  • Lista ţărilor
  • Pe 7 zile
  • Temperatura apei
  • Meteo pe hartă
  • Widget-uri
  • user-avatar
    Intrare

    Meteo pe oră la Saint-Nazaire

    Astăzi, 7 Iunie, Duminică

    Timp Temperatura Precipitaţii Vânt Presiune Umiditate
    00:00 +8°C° 0 mm 4 m/s 757 mmHg 79%
    01:00 +8°C° 0 mm 4 m/s 756 mmHg 81%
    02:00 +8°C° 0 mm 4 m/s 756 mmHg 84%
    03:00 +9°C° 0 mm 3 m/s 756 mmHg 86%
    04:00 +10°C° 0 mm 3 m/s 756 mmHg 84%
    05:00 +11°C° 0 mm 3 m/s 757 mmHg 82%
    06:00 +12°C° 0 mm 3 m/s 757 mmHg 79%
    07:00 +13°C° 0.2 mm 3 m/s 757 mmHg 76%
    08:00 +14°C° 0.2 mm 3 m/s 757 mmHg 72%
    09:00 +16°C° 0.2 mm 3 m/s 758 mmHg 69%
    10:00 +17°C° 0.3 mm 4 m/s 758 mmHg 68%
    11:00 +17°C° 0.3 mm 4 m/s 758 mmHg 68%
    12:00 +17°C° 0.3 mm 5 m/s 758 mmHg 68%
    13:00 +17°C° 0.2 mm 5 m/s 758 mmHg 68%
    14:00 +17°C° 0.2 mm 6 m/s 758 mmHg 67%
    15:00 +17°C° 0.2 mm 7 m/s 758 mmHg 67%
    16:00 +17°C° 0.3 mm 6 m/s 758 mmHg 70%
    17:00 +16°C° 0.3 mm 6 m/s 758 mmHg 73%
    18:00 +16°C° 0.3 mm 6 m/s 758 mmHg 76%
    19:00 +15°C° 0.3 mm 5 m/s 758 mmHg 80%
    20:00 +14°C° 0.3 mm 5 m/s 759 mmHg 85%
    21:00 +12°C° 0.3 mm 4 m/s 759 mmHg 89%
    22:00 +12°C° 0.1 mm 4 m/s 759 mmHg 91%
    23:00 +11°C° 0.1 mm 4 m/s 759 mmHg 92%

    Mâine, 8 Iunie, Luni

    Timp Temperatura Precipitaţii Vânt Presiune Umiditate
    00:00 +10°C° 0.1 mm 4 m/s 759 mmHg 93%
    01:00 +10°C° 0 mm 4 m/s 759 mmHg 93%
    02:00 +9°C° 0 mm 3 m/s 759 mmHg 93%
    03:00 +9°C° 0 mm 3 m/s 759 mmHg 94%
    04:00 +9°C° 0 mm 3 m/s 759 mmHg 92%
    05:00 +10°C° 0 mm 3 m/s 760 mmHg 91%
    06:00 +11°C° 0 mm 3 m/s 760 mmHg 90%
    07:00 +12°C° 0 mm 3 m/s 760 mmHg 83%
    08:00 +15°C° 0 mm 2 m/s 760 mmHg 76%
    09:00 +17°C° 0 mm 2 m/s 761 mmHg 69%
    10:00 +18°C° 0 mm 3 m/s 761 mmHg 64%
    11:00 +19°C° 0 mm 3 m/s 761 mmHg 59%
    12:00 +20°C° 0 mm 3 m/s 760 mmHg 54%
    13:00 +20°C° 0.2 mm 4 m/s 760 mmHg 58%
    14:00 +20°C° 0.2 mm 4 m/s 761 mmHg 61%
    15:00 +20°C° 0.2 mm 5 m/s 761 mmHg 65%
    16:00 +19°C° 0.7 mm 5 m/s 761 mmHg 70%
    17:00 +17°C° 0.7 mm 6 m/s 761 mmHg 76%
    18:00 +17°C° 0.7 mm 6 m/s 761 mmHg 81%
    19:00 +15°C° 0.1 mm 6 m/s 761 mmHg 83%
    20:00 +14°C° 0.1 mm 6 m/s 762 mmHg 85%
    21:00 +11°C° 0.1 mm 6 m/s 763 mmHg 87%
    22:00 +10°C° 0 mm 6 m/s 763 mmHg 88%
    23:00 +10°C° 0 mm 5 m/s 763 mmHg 89%

    Poimâine, 9 Iunie, Marţi

    Timp Temperatura Precipitaţii Vânt Presiune Umiditate
    00:00 +9°C° 0 mm 5 m/s 763 mmHg 90%
    01:00 +8°C° 0 mm 5 m/s 763 mmHg 90%
    02:00 +8°C° 0 mm 5 m/s 763 mmHg 90%
    03:00 +8°C° 0 mm 5 m/s 763 mmHg 90%
    04:00 +8°C° 0 mm 5 m/s 763 mmHg 89%
    05:00 +9°C° 0 mm 5 m/s 763 mmHg 88%
    06:00 +11°C° 0 mm 4 m/s 764 mmHg 87%
    07:00 +12°C° 0 mm 4 m/s 764 mmHg 79%
    08:00 +14°C° 0 mm 4 m/s 764 mmHg 71%
    09:00 +17°C° 0 mm 4 m/s 764 mmHg 63%
    10:00 +18°C° 0 mm 4 m/s 764 mmHg 60%
    11:00 +18°C° 0 mm 4 m/s 764 mmHg 57%
    12:00 +19°C° 0 mm 4 m/s 764 mmHg 55%
    13:00 +19°C° 0 mm 4 m/s 764 mmHg 55%
    14:00 +20°C° 0 mm 4 m/s 764 mmHg 55%
    15:00 +20°C° 0 mm 4 m/s 764 mmHg 55%
    16:00 +19°C° 0.1 mm 5 m/s 764 mmHg 58%
    17:00 +19°C° 0.1 mm 5 m/s 764 mmHg 61%
    18:00 +19°C° 0.1 mm 5 m/s 764 mmHg 63%
    19:00 +16°C° 0 mm 5 m/s 764 mmHg 69%
    20:00 +14°C° 0 mm 5 m/s 765 mmHg 75%
    21:00 +12°C° 0 mm 4 m/s 765 mmHg 81%
    22:00 +11°C° 0 mm 4 m/s 765 mmHg 83%
    23:00 +11°C° 0 mm 4 m/s 765 mmHg 85%

    10 Iunie, Miercuri

    Timp Temperatura Precipitaţii Vânt Presiune Umiditate
    00:00 +10°C° 0 mm 3 m/s 765 mmHg 87%
    01:00 +9°C° 0 mm 3 m/s 765 mmHg 87%
    02:00 +9°C° 0 mm 3 m/s 765 mmHg 87%
    03:00 +9°C° 0 mm 2 m/s 764 mmHg 86%
    04:00 +9°C° 0 mm 2 m/s 764 mmHg 83%
    05:00 +10°C° 0 mm 2 m/s 764 mmHg 80%
    06:00 +11°C° 0 mm 1 m/s 764 mmHg 76%
    07:00 +13°C° 0 mm 1 m/s 764 mmHg 73%
    08:00 +14°C° 0 mm 2 m/s 764 mmHg 70%
    09:00 +15°C° 0 mm 2 m/s 764 mmHg 68%
    10:00 +16°C° 0 mm 3 m/s 764 mmHg 66%
    11:00 +17°C° 0 mm 3 m/s 764 mmHg 64%
    12:00 +17°C° 0 mm 4 m/s 763 mmHg 62%
    13:00 +17°C° 0 mm 4 m/s 763 mmHg 63%
    14:00 +16°C° 0 mm 5 m/s 762 mmHg 64%
    15:00 +16°C° 0 mm 5 m/s 762 mmHg 64%
    16:00 +16°C° 0 mm 5 m/s 762 mmHg 67%
    17:00 +15°C° 0 mm 5 m/s 762 mmHg 69%
    18:00 +14°C° 0 mm 5 m/s 761 mmHg 72%
    19:00 +14°C° 0 mm 5 m/s 761 mmHg 74%
    20:00 +14°C° 0 mm 5 m/s 761 mmHg 75%
    21:00 +13°C° 0 mm 4 m/s 761 mmHg 77%
    22:00 +13°C° 0.1 mm 5 m/s 760 mmHg 79%
    23:00 +13°C° 0.1 mm 6 m/s 759 mmHg 81%

    11 Iunie, Joi

    Timp Temperatura Precipitaţii Vânt Presiune Umiditate
    00:00 +13°C° 0.1 mm 6 m/s 759 mmHg 83%
    01:00 +14°C° 0.5 mm 7 m/s 758 mmHg 86%
    02:00 +13°C° 0.5 mm 8 m/s 757 mmHg 89%
    03:00 +13°C° 0.5 mm 9 m/s 756 mmHg 91%
    04:00 +13°C° 0.7 mm 9 m/s 755 mmHg 91%
    05:00 +13°C° 0.7 mm 10 m/s 754 mmHg 91%
    06:00 +14°C° 0.7 mm 11 m/s 753 mmHg 91%
    07:00 +13°C° 1.2 mm 10 m/s 753 mmHg 90%
    08:00 +13°C° 1.2 mm 8 m/s 753 mmHg 88%
    09:00 +12°C° 1.2 mm 7 m/s 753 mmHg 86%
    10:00 +13°C° 0.1 mm 8 m/s 753 mmHg 78%
    11:00 +15°C° 0.1 mm 9 m/s 753 mmHg 69%
    12:00 +16°C° 0.1 mm 10 m/s 753 mmHg 60%
    13:00 +16°C° 0.3 mm 10 m/s 753 mmHg 61%
    14:00 +14°C° 0.3 mm 10 m/s 753 mmHg 62%
    15:00 +14°C° 0.3 mm 11 m/s 753 mmHg 64%
    16:00 +14°C° 0.2 mm 10 m/s 753 mmHg 65%
    17:00 +13°C° 0.2 mm 10 m/s 753 mmHg 66%
    18:00 +13°C° 0.2 mm 10 m/s 753 mmHg 67%
    19:00 +13°C° 0.1 mm 10 m/s 753 mmHg 69%
    20:00 +12°C° 0.1 mm 10 m/s 752 mmHg 72%
    21:00 +12°C° 0.1 mm 10 m/s 752 mmHg 75%
    22:00 +12°C° 0.5 mm 11 m/s 752 mmHg 77%
    23:00 +12°C° 0.5 mm 12 m/s 751 mmHg 80%

    12 Iunie, Vineri

    Timp Temperatura Precipitaţii Vânt Presiune Umiditate
    00:00 +12°C° 0.5 mm 13 m/s 751 mmHg 82%
    01:00 +12°C° 0.4 mm 13 m/s 751 mmHg 83%
    02:00 +12°C° 0.4 mm 12 m/s 751 mmHg 85%
    03:00 +12°C° 0.4 mm 12 m/s 751 mmHg 86%
    04:00 +12°C° 0.3 mm 10 m/s 751 mmHg 86%
    05:00 +11°C° 0.3 mm 8 m/s 752 mmHg 87%
    06:00 +11°C° 0.3 mm 7 m/s 752 mmHg 87%
    07:00 +11°C° 0.6 mm 7 m/s 753 mmHg 88%
    08:00 +12°C° 0.6 mm 8 m/s 753 mmHg 89%
    09:00 +12°C° 0.6 mm 8 m/s 753 mmHg 89%
    10:00 +13°C° 0.1 mm 8 m/s 754 mmHg 85%
    11:00 +15°C° 0.1 mm 8 m/s 754 mmHg 81%
    12:00 +16°C° 0.1 mm 8 m/s 754 mmHg 76%
    13:00 +16°C° 0.1 mm 8 m/s 754 mmHg 74%
    14:00 +17°C° 0.1 mm 8 m/s 755 mmHg 71%
    15:00 +17°C° 0.1 mm 8 m/s 755 mmHg 69%
    16:00 +17°C° 0 mm 8 m/s 755 mmHg 70%
    17:00 +17°C° 0 mm 7 m/s 755 mmHg 71%
    18:00 +16°C° 0 mm 7 m/s 755 mmHg 72%
    19:00 +15°C° 0 mm 6 m/s 756 mmHg 77%
    20:00 +14°C° 0 mm 5 m/s 756 mmHg 83%
    21:00 +13°C° 0 mm 4 m/s 756 mmHg 88%
    22:00 +12°C° 0 mm 4 m/s 756 mmHg 89%
    23:00 +12°C° 0 mm 3 m/s 756 mmHg 89%
    Arată mai mult